DW6536 Weather Reports


time (UTC)temp
F
wind
direction
speed
knots
gust
knots
rain 1hr
in
rain 24hr
in
rain mn
in
humidity
%
barometer
mb
20260904161513 86 291 1.7 0.0 0.00 0.00 0.00 71 1012.3
20260904160013 85 251 0.9 0.0 0.00 0.00 0.00 74 1012.2
20260904154509 84 207 0.9 0.0 0.00 0.00 0.00 76 1012.2
20260904153006 83 174 1.7 0.0 0.00 0.00 0.00 78 1012.1
20260904151504 83 212 1.7 0.0 0.00 0.00 0.00 78 1011.9
20260904150014 82 207 0.9 0.0 0.00 0.00 0.00 79 1011.9
20260904144601 81 106 0.9 0.0 0.00 0.00 0.00 81 1011.9
20260904143058 81 216 0.9 0.0 0.00 0.00 0.00 81 1011.9
20260904141558 81 192 1.7 0.0 0.00 0.00 0.00 82 1011.8
20260904140105 80 168 0.9 0.0 0.00 0.00 0.00 84 1011.8
20260904134554 80 205 0.9 0.0 0.00 0.00 0.00 85 1011.7
20260904133054 79 201 0.9 0.0 0.00 0.00 0.00 86 1011.9
20260904131553 79 164 0.9 0.0 0.00 0.00 0.00 86 1011.8
20260904130103 79 180 0.0 0.0 0.00 0.00 0.00 86 1011.9
20260904124557 79 116 0.0 0.0 0.00 0.00 0.00 87 1011.8
20260904123051 79 162 0.9 0.0 0.00 0.00 0.00 87 1011.7
20260904121548 79 155 0.9 0.0 0.00 0.00 0.00 86 1011.3
20260904120104 79 118 0.9 0.0 0.00 0.00 0.00 86 1011.1
20260904114543 79 143 1.7 0.0 0.00 0.00 0.00 85 1010.8
20260904113042 79 114 1.7 0.0 0.00 0.00 0.00 85 1010.8
20260904111540 79 150 0.9 0.0 0.00 0.00 0.00 85 1010.5
20260904110042 79 333 0.9 0.0 0.00 0.00 0.00 85 1010.5
20260904104537 79 132 1.7 0.0 0.00 0.00 0.00 85 1010.4
20260904103037 79 199 0.9 0.0 0.00 0.00 0.00 84 1010.3
20260904101535 79 139 0.9 0.0 0.00 0.00 0.00 84 1010.2
20260904100034 79 161 0.9 0.0 0.00 0.00 0.00 84 1010.2
20260904094535 79 137 0.9 0.0 0.00 0.00 0.00 84 1010.1
20260904093037 80 133 0.9 0.0 0.00 0.00 0.00 83 1010.0
20260904091532 80 205 0.9 0.0 0.00 0.00 0.00 83 1010.1
20260904090033 80 228 0.0 0.0 0.00 0.00 0.00 83 1010.1
20260904084532 80 158 0.9 0.0 0.00 0.00 0.00 83 1010.1
20260904083036 80 165 0.9 0.0 0.00 0.00 0.00 83 1010.1
20260904081537 80 210 0.9 0.0 0.00 0.00 0.00 83 1010.1
20260904080029 80 114 0.9 0.0 0.00 0.00 0.00 82 1010.1
20260904074528 80 176 1.7 0.0 0.00 0.00 0.00 82 1010.2
20260904073028 80 141 1.7 0.0 0.00 0.00 0.00 82 1010.2
20260904071525 80 207 1.7 0.0 0.00 0.00 0.00 81 1010.3
20260904070026 80 185 2.6 0.0 0.00 0.00 0.00 81 1010.5
20260904064525 80 168 0.9 0.0 0.00 0.00 0.00 80 1010.5
20260904063025 80 130 2.6 0.0 0.00 0.00 0.00 80 1010.5
20260904061538 80 124 1.7 0.0 0.00 0.00 0.00 80 1010.4
20260904060024 80 113 0.9 0.0 0.00 0.00 0.00 80 1010.6
20260904054524 80 243 1.7 0.0 0.00 0.00 0.00 80 1010.5
20260904053021 80 220 2.6 0.0 0.00 0.00 0.00 80 1010.4
20260904051518 80 137 2.6 0.0 0.00 0.00 0.00 79 1010.3
20260904050020 80 180 1.7 0.0 0.00 0.00 0.00 80 1010.1
20260904044527 80 143 0.9 0.0 0.00 0.00 0.00 80 1010.2
20260904043023 80 338 1.7 0.0 0.00 0.00 0.00 80 1010.2
20260904041515 80 147 1.7 0.0 0.00 0.00 0.00 79 1010.2
20260904040016 80 172 1.7 0.0 0.00 0.00 0.00 79 1010.1
20260904034514 80 132 1.7 0.0 0.00 0.00 0.00 79 1010.1
20260904033014 80 203 2.6 0.0 0.00 0.00 0.00 78 1010.0
20260904031513 81 128 2.6 0.0 0.00 0.00 0.00 77 1009.9
20260904030019 81 132 1.7 0.0 0.00 0.00 0.00 75 1009.8
20260904024514 82 125 1.7 0.0 0.00 0.00 0.00 74 1009.7
20260904023012 82 151 2.6 0.0 0.00 0.00 0.00 73 1009.6
20260904021521 83 141 3.5 0.0 0.00 0.00 0.00 71 1009.2
20260904020011 83 155 2.6 0.0 0.00 0.00 0.00 70 1009.2
20260904014513 83 223 0.9 0.0 0.00 0.00 0.00 71 1009.0
20260904013011 84 158 1.7 0.0 0.00 0.00 0.00 70 1008.8
20260904011510 84 175 2.6 0.0 0.00 0.00 0.00 69 1008.6
20260904010009 85 133 2.6 0.0 0.00 0.00 0.00 68 1008.5
20260904004508 86 172 2.6 0.0 0.00 0.00 0.00 66 1008.6
20260904003008 87 157 1.7 0.0 0.00 0.00 0.00 67 1008.5
20260904001506 88 143 1.7 0.0 0.00 0.00 0.00 66 1008.3
20260904000006 88 131 1.7 0.0 0.00 0.00 0.00 65 1008.3
20260903234517 89 139 1.7 0.0 0.00 0.00 0.00 64 1008.3
20260903233005 89 77 2.6 0.0 0.00 0.00 0.00 64 1008.1
20260903231504 91 163 2.6 0.0 0.00 0.00 0.00 62 1007.9
20260903230009 91 147 3.5 0.0 0.00 0.00 0.00 62 1007.8
20260903224511 94 97 3.5 0.0 0.00 0.00 0.00 61 1007.6
20260903223003 96 127 2.6 0.0 0.00 0.00 0.00 56 1007.3
20260903221502 96 131 2.6 0.0 0.00 0.00 0.00 53 1007.2
20260903220006 97 114 2.6 0.0 0.00 0.00 0.00 51 1007.3
20260903214501 96 105 2.6 0.0 0.00 0.00 0.00 52 1007.3
20260903213103 97 105 2.6 0.0 0.00 0.00 0.00 50 1007.4
20260903211603 98 140 2.6 0.0 0.00 0.00 0.00 49 1007.5
20260903210112 100 160 1.7 0.0 0.00 0.00 0.00 47 1007.7
20260903204557 100 79 1.7 0.0 0.00 0.00 0.00 46 1007.8
20260903203053 100 153 1.7 0.0 0.00 0.00 0.00 46 1008.0
20260903201550 99 76 1.7 0.0 0.00 0.00 0.00 47 1008.3
20260903200045 97 68 1.7 0.0 0.00 0.00 0.00 49 1008.5
20260903194542 96 106 1.7 0.0 0.00 0.00 0.00 49 1008.6
20260903193041 96 115 1.7 0.0 0.00 0.00 0.00 51 1008.8
20260903191550 95 106 1.7 0.0 0.00 0.00 0.00 51 1009.0
20260903190035 95 173 1.7 0.0 0.00 0.00 0.00 52 1009.3
20260903184542 95 145 1.7 0.0 0.00 0.00 0.00 52 1009.6
20260903183036 95 259 2.6 0.0 0.00 0.00 0.00 53 1009.8
20260903181531 95 151 1.7 0.0 0.00 0.00 0.00 53 1010.1
20260903180043 95 160 1.7 0.0 0.00 0.00 0.00 53 1010.3
20260903174531 95 118 3.5 0.0 0.00 0.00 0.00 51 1010.5
20260903173031 96 255 2.6 0.0 0.00 0.00 0.00 51 1010.4
20260903171530 96 14 1.7 0.0 0.00 0.00 0.00 53 1010.5
20260903170024 93 129 2.6 0.0 0.00 0.00 0.00 56 1010.5
20260903164521 92 185 1.7 0.0 0.00 0.00 0.00 58 1010.6
20260903163018 91 245 1.7 0.0 0.00 0.00 0.00 60 1010.7